CW9688 Weather Reports


Display with metric or nautical units.
time (UTC)temp
F
wind
direction
speed
MPH
gust
MPH
rain 1hr
in
rain 24hr
in
rain mn
in
humidity
%
barometer
mb
20260903130304 59 201 0.0 1.0 0.00 0.13 0.00 74 1011.2
20260903124804 59 211 2.0 5.0 0.00 0.13 0.00 76 1011.2
20260903122305 57 196 2.0 3.0 0.00 0.13 0.00 84 1011.2
20260903121804 56 214 2.0 3.0 0.00 0.13 0.00 84 1011.2
20260903120804 57 176 2.0 2.0 0.00 0.13 0.00 84 1011.2
20260903114805 57 211 0.0 2.0 0.00 0.13 0.00 84 1011.2
20260903113804 59 165 1.0 3.0 0.00 0.13 0.00 81 1011.2
20260903113304 58 182 2.0 3.0 0.00 0.13 0.00 83 1011.2
20260903111804 58 211 2.0 3.0 0.00 0.13 0.00 86 1011.2
20260903111304 57 213 2.0 3.0 0.00 0.13 0.00 87 1011.2
20260903110304 57 193 0.0 0.0 0.00 0.13 0.00 88 1011.2
20260903104305 57 193 0.0 1.0 0.00 0.13 0.00 87 1011.2
20260903103304 58 193 2.0 3.0 0.00 0.13 0.00 87 1011.2
20260903102306 58 193 0.0 1.0 0.00 0.13 0.00 87 1011.2
20260903100804 59 176 0.0 2.0 0.00 0.13 0.00 86 1011.2
20260903100304 59 176 3.0 3.0 0.00 0.13 0.00 88 1011.2
20260903095804 58 176 0.0 0.0 0.00 0.13 0.00 87 1011.2
20260903095306 58 176 0.0 0.0 0.00 0.13 0.00 88 1011.2
20260903094805 58 176 0.0 0.0 0.00 0.13 0.00 86 1011.2
20260903094304 59 176 0.0 0.0 0.00 0.13 0.00 86 1011.2
20260903093305 59 176 0.0 0.0 0.00 0.13 0.00 86 1011.2
20260903092306 60 176 0.0 1.0 0.00 0.13 0.00 84 1011.2
20260903091304 60 180 1.0 2.0 0.00 0.13 0.00 86 1011.2
20260903090304 61 180 0.0 1.0 0.00 0.13 0.00 84 1011.2
20260903085804 61 180 0.0 2.0 0.00 0.13 0.00 83 1011.2
20260903084804 61 178 2.0 5.0 0.00 0.13 0.00 83 1011.2
20260903084304 61 182 1.0 3.0 0.00 0.13 0.00 83 1011.2
20260903082804 62 193 1.0 2.0 0.00 0.13 0.00 80 1011.2
20260903082306 62 186 1.0 2.0 0.00 0.13 0.00 79 1011.2
20260903081304 62 179 2.0 5.0 0.00 0.13 0.00 79 1011.2
20260903080804 62 173 2.0 3.0 0.00 0.13 0.00 79 1011.2
20260903080304 62 178 2.0 3.0 0.00 0.13 0.00 80 1011.2
20260903075804 62 156 1.0 2.0 0.00 0.13 0.00 80 1011.2
20260903074804 62 146 3.0 6.0 0.00 0.13 0.00 84 1011.2
20260903073805 62 147 0.0 0.0 0.00 0.13 0.00 86 1011.2
20260903073304 62 147 1.0 2.0 0.00 0.13 0.00 85 1011.2
20260903072804 62 147 0.0 1.0 0.00 0.13 0.00 85 1011.2
20260903070804 62 147 0.0 0.0 0.00 0.13 0.00 87 1011.2
20260903065306 62 147 2.0 2.0 0.00 0.13 0.00 86 1011.2
20260903064805 62 147 0.0 0.0 0.00 0.13 0.00 86 1011.2
20260903064304 62 147 0.0 0.0 0.00 0.13 0.00 86 1011.2
20260903062804 62 130 1.0 2.0 0.00 0.13 0.00 86 1011.2
20260903062306 62 130 1.0 2.0 0.00 0.13 0.00 86 1011.2
20260903061304 62 56 1.0 3.0 0.00 0.13 0.00 87 1011.2
20260903055306 62 156 1.0 2.0 0.00 0.13 0.13 86 1011.2
20260903054804 62 156 0.0 1.0 0.00 0.13 0.13 86 1011.2
20260903054304 63 163 0.0 3.0 0.00 0.13 0.13 84 1011.2
20260903053804 63 143 1.0 3.0 0.00 0.13 0.13 83 1011.2
20260903051304 63 161 3.0 5.0 0.00 0.13 0.13 83 1011.2
20260903050804 63 113 3.0 5.0 0.00 0.13 0.13 83 1011.2
20260903044804 62 213 2.0 3.0 0.00 0.13 0.13 87 1011.2
20260903043804 62 112 2.0 3.0 0.00 0.13 0.13 88 1011.2
20260903042804 62 122 0.0 0.0 0.00 0.13 0.13 87 1011.2
20260903040804 62 30 0.0 0.0 0.09 0.13 0.13 87 1011.2
20260903034804 63 81 3.0 7.0 0.13 0.13 0.13 81 1011.2
20260903032803 62 16 3.0 6.0 0.13 0.13 0.13 85 1013.7
20260903032306 63 56 2.0 5.0 0.13 0.13 0.13 83 1013.7
20260903031804 64 169 5.0 7.0 0.13 0.13 0.13 79 1013.7
20260903031304 65 32 5.0 8.0 0.12 0.12 0.12 75 1013.7
20260903030804 68 185 6.0 10.0 0.04 0.04 0.04 65 1013.7
20260903030304 72 179 6.0 9.0 0.01 0.01 0.01 57 1013.7
20260903024804 73 351 5.0 8.0 0.00 0.00 0.00 46 1013.7
20260903022804 73 350 4.0 12.0 0.00 0.00 0.00 45 1013.7
20260903021804 73 18 7.0 12.0 0.00 0.00 0.00 46 1013.7
20260903015803 75 20 9.0 17.0 0.00 0.00 0.00 43 1013.7
20260903014304 75 8 7.0 13.0 0.00 0.00 0.00 39 1013.7
20260903013804 76 353 7.0 13.0 0.00 0.00 0.00 39 1013.7
20260903012306 76 336 7.0 12.0 0.00 0.00 0.00 37 1013.7
20260903011804 76 346 6.0 12.0 0.00 0.00 0.00 37 1013.7
20260903010805 77 353 6.0 12.0 0.00 0.00 0.00 37 1013.7
20260903005804 78 358 9.0 18.0 0.00 0.00 0.00 36 1013.7
20260903004305 81 331 7.0 14.0 0.00 0.00 0.00 31 1013.7
20260903003804 81 315 9.0 16.0 0.00 0.00 0.00 30 1013.7
20260903002804 82 337 6.0 15.0 0.00 0.00 0.00 29 1013.7
20260903001304 83 314 10.0 20.0 0.00 0.00 0.00 28 1013.7
20260903000303 85 350 7.0 12.0 0.00 0.00 0.00 28 1013.7
20260902235804 85 333 6.0 12.0 0.00 0.00 0.00 29 1013.7
20260902234803 84 345 6.0 12.0 0.00 0.00 0.00 31 1013.7
20260902233304 85 5 4.0 10.0 0.00 0.00 0.00 28 1013.7
20260902232306 85 60 3.0 6.0 0.00 0.00 0.00 28 1013.7
20260902231804 85 56 2.0 7.0 0.00 0.00 0.00 28 1013.7
20260902231304 85 51 3.0 6.0 0.00 0.00 0.00 28 1013.7
20260902230804 85 60 2.0 7.0 0.00 0.00 0.00 27 1013.7
20260902230304 86 95 2.0 7.0 0.00 0.00 0.00 27 1013.7
20260902225804 86 105 4.0 9.0 0.00 0.00 0.00 27 1013.7
20260902224304 86 130 6.0 13.0 0.00 0.00 0.00 26 1013.7
20260902223804 87 96 10.0 14.0 0.00 0.00 0.00 25 1013.7
20260902223304 89 117 9.0 15.0 0.00 0.00 0.00 24 1013.7
20260902222804 89 122 6.0 20.0 0.00 0.00 0.00 25 1013.7
20260902220804 89 103 5.0 14.0 0.00 0.00 0.00 24 1013.7
20260902215804 89 68 7.0 13.0 0.00 0.00 0.00 24 1013.7
20260902213804 90 113 8.0 13.0 0.00 0.00 0.00 23 1013.7
20260902213304 90 154 6.0 10.0 0.00 0.00 0.00 21 1013.7
20260902212804 89 95 7.0 15.0 0.00 0.00 0.00 26 1013.7
20260902212306 88 85 5.0 10.0 0.00 0.00 0.00 24 1013.7
20260902211804 88 89 7.0 14.0 0.00 0.00 0.00 25 1013.7
20260902210304 90 74 9.0 14.0 0.00 0.00 0.00 23 1013.7
20260902205306 88 102 6.0 13.0 0.00 0.00 0.00 24 1013.7
20260902204804 90 113 3.0 12.0 0.00 0.00 0.00 23 1013.7
20260902204304 89 144 8.0 13.0 0.00 0.00 0.00 24 1013.7
20260902203804 89 130 8.0 16.0 0.00 0.00 0.00 22 1013.7
20260902203304 89 111 6.0 14.0 0.00 0.00 0.00 25 1013.7
20260902202306 88 119 5.0 12.0 0.00 0.00 0.00 22 1013.7
20260902201804 86 72 5.0 15.0 0.00 0.00 0.00 23 1013.7
20260902200804 88 104 12.0 17.0 0.00 0.00 0.00 24 1013.7
20260902200304 87 48 9.0 13.0 0.00 0.00 0.00 24 1013.7
20260902194803 88 104 6.0 12.0 0.00 0.00 0.00 23 1013.7
20260902193803 86 103 5.0 9.0 0.00 0.00 0.00 25 1013.7
20260902192306 87 96 6.0 12.0 0.00 0.00 0.00 24 1013.7
20260902191804 87 84 6.0 13.0 0.00 0.00 0.00 23 1013.7
20260902191305 88 107 6.0 12.0 0.00 0.00 0.00 24 1013.7
20260902190803 87 23 3.0 8.0 0.00 0.00 0.00 24 1013.7
20260902185306 86 141 3.0 12.0 0.00 0.00 0.00 26 1013.7
20260902184804 86 167 2.0 9.0 0.00 0.00 0.00 24 1013.7
20260902183804 85 85 3.0 8.0 0.00 0.00 0.00 25 1013.7
20260902182804 87 113 6.0 12.0 0.00 0.00 0.00 25 1013.7
20260902181804 86 85 4.0 13.0 0.00 0.00 0.00 25 1013.7
20260902181304 85 96 2.0 7.0 0.00 0.00 0.00 26 1013.7
20260902180804 85 121 3.0 8.0 0.00 0.00 0.00 27 1013.7
20260902180304 85 70 3.0 8.0 0.00 0.00 0.00 26 1013.7
20260902175803 85 100 4.0 9.0 0.00 0.00 0.00 27 1013.7
20260902174804 84 126 6.0 9.0 0.00 0.00 0.00 26 1013.7
20260902173803 84 136 3.0 8.0 0.00 0.00 0.00 26 1013.7
20260902171804 82 68 7.0 12.0 0.00 0.00 0.00 29 1013.7
20260902171304 82 98 5.0 12.0 0.00 0.00 0.00 31 1013.7
20260902165803 82 175 5.0 7.0 0.00 0.00 0.00 30 1013.7
20260902164304 82 97 5.0 8.0 0.00 0.00 0.00 31 1013.3
20260902163804 82 146 5.0 12.0 0.00 0.00 0.00 32 1013.3
20260902163303 81 167 6.0 10.0 0.00 0.00 0.00 34 1013.3
20260902162307 80 148 4.0 8.0 0.00 0.00 0.00 34 1013.3
20260902161805 79 138 5.0 9.0 0.00 0.00 0.00 36 1013.3
20260902160804 78 171 7.0 10.0 0.00 0.00 0.00 36 1013.3
20260902154804 77 176 5.0 10.0 0.00 0.00 0.00 38 1013.3
20260902153804 76 123 5.0 9.0 0.00 0.00 0.00 40 1013.3
20260902153304 75 163 5.0 7.0 0.00 0.00 0.00 42 1013.3
20260902151303 73 171 5.0 8.0 0.00 0.00 0.00 44 1013.3
20260902145306 71 162 3.0 7.0 0.00 0.00 0.00 49 1013.3
20260902144804 71 156 3.0 7.0 0.00 0.00 0.00 49 1013.3
20260902140804 66 183 3.0 7.0 0.00 0.00 0.00 57 1013.3
20260902140304 66 175 5.0 7.0 0.00 0.00 0.00 58 1013.3
20260902135805 65 175 3.0 6.0 0.00 0.00 0.00 59 1013.3
20260902134805 64 171 3.0 7.0 0.00 0.00 0.00 61 1013.3
20260902133304 63 170 4.0 7.0 0.00 0.00 0.00 63 1013.3
20260902132805 62 171 3.0 5.0 0.00 0.00 0.00 63 1013.3
20260902132307 62 169 2.0 6.0 0.00 0.00 0.00 63 1013.3
20260902131805 61 178 4.0 6.0 0.00 0.00 0.00 64 1013.3
20260902131305 61 186 3.0 6.0 0.00 0.00 0.00 64 1013.3